Location: ???????
(56.2167°N, 38.0500°E)
Time: 06:27:03
(UTC+00:00)

MetOp-A - Pass Details

Date: 19 May 2025
Orbit: 522 x 774 km, 98.3° (Epoch: 15 June)

Event Time Altitude Azimuth Distance (km) Brightness Sun altitude
Exits shadow 20:32:53 18° 185° (S) 1,842 5.4 -13.0°
Maximum altitude 20:36:41 56° 259° (W) 921 4.4 -13.2°
Drops below altitude 10° 20:41:48 10° 338° (NNW) 2,332 7.9 -13.3°
Sets 20:44:10 0° 343° (NNW) 3,251 9.2 -13.3°
